Year,Month,Day,Hour,Minute,Value (Times are PST for temperature in C)
2014,07,14,00,00,22.10
2014,07,14,00,01,22.20
2014,07,14,00,05,22.20
2014,07,14,00,06,22.20
2014,07,14,00,07,22.20
2014,07,14,00,08,22.10
2014,07,14,00,09,22.10
2014,07,14,00,10,22.10
2014,07,14,00,11,22.10
2014,07,14,00,12,22.00
2014,07,14,00,13,22.00
2014,07,14,00,14,22.00
2014,07,14,00,15,22.00
2014,07,14,00,16,22.00
2014,07,14,00,17,22.00
2014,07,14,00,18,22.10
2014,07,14,00,19,22.10
2014,07,14,00,20,22.10
2014,07,14,00,21,22.10
2014,07,14,00,22,22.00
2014,07,14,00,23,22.00
2014,07,14,00,24,21.90
2014,07,14,00,25,22.00
2014,07,14,00,26,22.00
2014,07,14,00,27,21.90
2014,07,14,00,28,21.90
2014,07,14,00,29,21.90
2014,07,14,00,30,21.80
2014,07,14,00,31,21.80
2014,07,14,00,32,21.80
2014,07,14,00,33,21.70
2014,07,14,00,34,21.70
2014,07,14,00,35,21.70
2014,07,14,00,36,21.70
2014,07,14,00,37,21.60
2014,07,14,00,38,21.60
2014,07,14,00,39,21.60
2014,07,14,00,40,21.60
2014,07,14,00,41,21.60
2014,07,14,00,42,21.60
2014,07,14,00,43,21.60
2014,07,14,00,44,21.60
2014,07,14,00,45,21.60
2014,07,14,00,46,21.60
2014,07,14,00,47,21.50
2014,07,14,00,48,21.50
2014,07,14,00,49,21.50
2014,07,14,00,50,21.40
2014,07,14,00,51,21.40
2014,07,14,00,52,21.40
2014,07,14,00,53,21.40
2014,07,14,00,54,21.30
2014,07,14,00,55,21.30
2014,07,14,00,56,21.30
2014,07,14,00,57,21.30
2014,07,14,00,58,21.30
2014,07,14,00,59,21.30
2014,07,14,01,00,21.20
2014,07,14,01,01,21.20
2014,07,14,01,02,21.20
2014,07,14,01,03,21.20
2014,07,14,01,04,21.20
2014,07,14,01,05,21.20
2014,07,14,01,06,21.20
2014,07,14,01,07,21.20
2014,07,14,01,08,21.20
2014,07,14,01,09,21.20
2014,07,14,01,10,21.10
2014,07,14,01,11,21.10
2014,07,14,01,12,21.10
2014,07,14,01,13,21.10
2014,07,14,01,14,21.10
2014,07,14,01,15,21.10
2014,07,14,01,16,21.10
2014,07,14,01,17,21.00
2014,07,14,01,18,21.00
2014,07,14,01,19,20.90
2014,07,14,01,20,20.90
2014,07,14,01,21,20.90
2014,07,14,01,22,20.80
2014,07,14,01,23,20.80
2014,07,14,01,24,20.80
2014,07,14,01,25,20.80
2014,07,14,01,26,20.80
2014,07,14,01,27,20.80
2014,07,14,01,28,20.70
2014,07,14,01,29,20.70
2014,07,14,01,30,20.70
2014,07,14,01,31,20.70
2014,07,14,01,32,20.60
2014,07,14,01,33,20.60
2014,07,14,01,34,20.60
2014,07,14,01,35,20.60
2014,07,14,01,36,20.60
2014,07,14,01,37,20.60
2014,07,14,01,38,20.60
2014,07,14,01,39,20.50
2014,07,14,01,40,20.50
2014,07,14,01,41,20.50
2014,07,14,01,42,20.50
2014,07,14,01,43,20.50
2014,07,14,01,44,20.60
2014,07,14,01,45,20.60
2014,07,14,01,46,20.60
2014,07,14,01,47,20.60
2014,07,14,01,48,20.60
2014,07,14,01,49,20.60
2014,07,14,01,50,20.60
2014,07,14,01,51,20.50
2014,07,14,01,52,20.50
2014,07,14,01,53,20.40
2014,07,14,01,54,20.40
2014,07,14,01,55,20.40
2014,07,14,01,56,20.30
2014,07,14,01,57,20.30
2014,07,14,01,58,20.30
2014,07,14,01,59,20.30
2014,07,14,02,00,20.30
2014,07,14,02,01,20.30
2014,07,14,02,02,20.30
2014,07,14,02,03,20.30
2014,07,14,02,04,20.30
2014,07,14,02,05,20.30
2014,07,14,02,06,20.30
2014,07,14,02,07,20.30
2014,07,14,02,08,20.30
2014,07,14,02,09,20.30
2014,07,14,02,10,20.30
2014,07,14,02,11,20.30
2014,07,14,02,12,20.30
2014,07,14,02,13,20.30
2014,07,14,02,14,20.40
2014,07,14,02,15,20.40
2014,07,14,02,16,20.40
2014,07,14,02,17,20.40
2014,07,14,02,18,20.30
2014,07,14,02,19,20.30
2014,07,14,02,20,20.30
2014,07,14,02,21,20.30
2014,07,14,02,22,20.20
2014,07,14,02,23,20.20
2014,07,14,02,24,20.20
2014,07,14,02,25,20.20
2014,07,14,02,26,20.20
2014,07,14,02,27,20.20
2014,07,14,02,28,20.20
2014,07,14,02,29,20.20
2014,07,14,02,30,20.20
2014,07,14,02,31,20.10
2014,07,14,02,32,20.10
2014,07,14,02,33,20.10
2014,07,14,02,34,20.10
2014,07,14,02,35,20.00
2014,07,14,02,36,20.00
2014,07,14,02,37,20.00
2014,07,14,02,38,19.90
2014,07,14,02,39,19.90
2014,07,14,02,40,19.90
2014,07,14,02,41,19.90
2014,07,14,02,42,19.90
2014,07,14,02,43,19.90
2014,07,14,02,44,19.90
2014,07,14,02,45,19.80
2014,07,14,02,46,19.80
2014,07,14,02,47,19.80
2014,07,14,02,48,19.80
2014,07,14,02,49,19.80
2014,07,14,02,50,19.80
2014,07,14,02,51,19.80
2014,07,14,02,52,19.80
2014,07,14,02,53,19.70
2014,07,14,02,54,19.70
2014,07,14,02,55,19.70
2014,07,14,02,56,19.70
2014,07,14,02,57,19.70
2014,07,14,02,58,19.70
2014,07,14,02,59,19.60
2014,07,14,03,00,19.60
2014,07,14,03,01,19.60
2014,07,14,03,02,19.60
2014,07,14,03,03,19.60
2014,07,14,03,04,19.60
2014,07,14,03,05,19.60
2014,07,14,03,06,19.50
2014,07,14,03,07,19.50
2014,07,14,03,08,19.50
2014,07,14,03,09,19.40
2014,07,14,03,10,19.40
2014,07,14,03,11,19.40
2014,07,14,03,12,19.40
2014,07,14,03,13,19.30
2014,07,14,03,14,19.30
2014,07,14,03,15,19.30
2014,07,14,03,16,19.20
2014,07,14,03,17,19.20
2014,07,14,03,18,19.20
2014,07,14,03,19,19.20
2014,07,14,03,20,19.20
2014,07,14,03,21,19.20
2014,07,14,03,22,19.10
2014,07,14,03,23,19.10
2014,07,14,03,24,19.10
2014,07,14,03,25,19.10
2014,07,14,03,26,19.10
2014,07,14,03,27,19.00
2014,07,14,03,28,19.00
2014,07,14,03,29,18.90
2014,07,14,03,30,18.90
2014,07,14,03,31,18.90
2014,07,14,03,32,19.00
2014,07,14,03,33,19.00
2014,07,14,03,34,19.00
2014,07,14,03,35,19.00
2014,07,14,03,36,19.00
2014,07,14,03,37,19.00
2014,07,14,03,38,19.00
2014,07,14,03,39,19.10
2014,07,14,03,40,19.10
2014,07,14,03,41,19.10
2014,07,14,03,42,19.10
2014,07,14,03,43,19.10
2014,07,14,03,44,19.10
2014,07,14,03,45,19.10
2014,07,14,03,46,19.10
2014,07,14,03,47,19.10
2014,07,14,03,48,19.00
2014,07,14,03,49,19.00
2014,07,14,03,50,19.00
2014,07,14,03,51,19.00
2014,07,14,03,52,19.00
2014,07,14,03,53,19.00
2014,07,14,03,54,18.90
2014,07,14,03,55,18.90
2014,07,14,03,56,18.90
2014,07,14,03,57,18.90
2014,07,14,03,58,18.90
2014,07,14,03,59,18.90
2014,07,14,04,00,18.90
2014,07,14,04,01,18.90
2014,07,14,04,02,18.90
2014,07,14,04,03,18.90
2014,07,14,04,04,18.90
2014,07,14,04,05,18.80
2014,07,14,04,06,18.80
2014,07,14,04,07,18.80
2014,07,14,04,08,18.80
2014,07,14,04,09,18.80
2014,07,14,04,10,18.80
2014,07,14,04,11,18.80
2014,07,14,04,12,18.80
2014,07,14,04,13,18.70
2014,07,14,04,14,18.70
2014,07,14,04,15,18.70
2014,07,14,04,16,18.70
2014,07,14,04,17,18.70
2014,07,14,04,18,18.70
2014,07,14,04,19,18.70
2014,07,14,04,20,18.70
2014,07,14,04,21,18.70
2014,07,14,04,22,18.60
2014,07,14,04,23,18.60
2014,07,14,04,24,18.60
2014,07,14,04,25,18.60
2014,07,14,04,26,18.50
2014,07,14,04,27,18.50
2014,07,14,04,28,18.50
2014,07,14,04,29,18.40
2014,07,14,04,30,18.40
2014,07,14,04,31,18.40
2014,07,14,04,32,18.30
2014,07,14,04,33,18.30
2014,07,14,04,34,18.30
2014,07,14,04,35,18.30
2014,07,14,04,36,18.30
2014,07,14,04,37,18.30
2014,07,14,04,38,18.30
2014,07,14,04,39,18.30
2014,07,14,04,40,18.30
2014,07,14,04,41,18.40
2014,07,14,04,42,18.40
2014,07,14,04,43,18.40
2014,07,14,04,44,18.40
2014,07,14,04,45,18.40
2014,07,14,04,46,18.30
2014,07,14,04,47,18.30
2014,07,14,04,48,18.30
2014,07,14,04,49,18.30
2014,07,14,04,50,18.30
2014,07,14,04,51,18.20
2014,07,14,04,52,18.20
2014,07,14,04,53,18.10
2014,07,14,04,54,18.10
2014,07,14,04,55,18.10
2014,07,14,04,56,18.10
2014,07,14,04,57,18.10
2014,07,14,04,58,18.10
2014,07,14,04,59,18.10
2014,07,14,05,00,18.10
2014,07,14,05,01,18.10
2014,07,14,05,02,18.10
2014,07,14,05,03,18.10
2014,07,14,05,04,18.10
2014,07,14,05,05,18.10
2014,07,14,05,06,18.10
2014,07,14,05,07,18.00
2014,07,14,05,08,18.00
2014,07,14,05,09,17.90
2014,07,14,05,10,17.90
2014,07,14,05,11,18.00
2014,07,14,05,12,18.10
2014,07,14,05,13,18.10
2014,07,14,05,14,18.10
2014,07,14,05,15,18.10
2014,07,14,05,16,18.10
2014,07,14,05,17,18.20
2014,07,14,05,18,18.20
2014,07,14,05,19,18.20
2014,07,14,05,20,18.10
2014,07,14,05,21,18.10
2014,07,14,05,22,18.20
2014,07,14,05,23,18.20
2014,07,14,05,24,18.30
2014,07,14,05,25,18.30
2014,07,14,05,26,18.30
2014,07,14,05,27,18.30
2014,07,14,05,28,18.30
2014,07,14,05,29,18.30
2014,07,14,05,30,18.40
2014,07,14,05,31,18.40
2014,07,14,05,32,18.40
2014,07,14,05,33,18.40
2014,07,14,05,34,18.40
2014,07,14,05,35,18.40
2014,07,14,05,36,18.40
2014,07,14,05,37,18.40
2014,07,14,05,38,18.40
2014,07,14,05,39,18.40
2014,07,14,05,40,18.40
2014,07,14,05,41,18.40
2014,07,14,05,42,18.40
2014,07,14,05,43,18.40
2014,07,14,05,44,18.40
2014,07,14,05,45,18.50
2014,07,14,05,46,18.50
2014,07,14,05,47,18.50
2014,07,14,05,48,18.50
2014,07,14,05,49,18.40
2014,07,14,05,50,18.40
2014,07,14,05,51,18.40
2014,07,14,05,52,18.40
2014,07,14,05,53,18.30
2014,07,14,05,54,18.30
2014,07,14,05,55,18.30
2014,07,14,05,56,18.20
2014,07,14,05,57,18.20
2014,07,14,05,58,18.20
2014,07,14,05,59,18.20
2014,07,14,06,00,18.20
2014,07,14,06,01,18.20
2014,07,14,06,02,18.20
2014,07,14,06,03,18.20
2014,07,14,06,04,18.20
2014,07,14,06,05,18.20
2014,07,14,06,06,18.30
2014,07,14,06,07,18.20
2014,07,14,06,08,18.20
2014,07,14,06,09,18.20
2014,07,14,06,10,18.20
2014,07,14,06,11,18.20
2014,07,14,06,12,18.30
2014,07,14,06,13,18.30
2014,07,14,06,14,18.30
2014,07,14,06,15,18.30
2014,07,14,06,16,18.30
2014,07,14,06,17,18.30
2014,07,14,06,18,18.30
2014,07,14,06,19,18.30
2014,07,14,06,20,18.30
2014,07,14,06,21,18.30
2014,07,14,06,22,18.30
2014,07,14,06,23,18.30
2014,07,14,06,24,18.30
2014,07,14,06,25,18.30
2014,07,14,06,26,18.30
2014,07,14,06,27,18.20
2014,07,14,06,28,18.20
2014,07,14,06,29,18.20
2014,07,14,06,30,18.20
2014,07,14,06,31,18.10
2014,07,14,06,32,18.10
2014,07,14,06,33,18.10
2014,07,14,06,34,18.00
2014,07,14,06,35,18.00
2014,07,14,06,36,17.90
2014,07,14,06,37,17.90
2014,07,14,06,38,17.90
2014,07,14,06,39,17.90
2014,07,14,06,40,17.90
2014,07,14,06,41,17.90
2014,07,14,06,42,18.00
2014,07,14,06,43,18.00
2014,07,14,06,44,18.10
2014,07,14,06,45,18.10
2014,07,14,06,46,18.10
2014,07,14,06,47,18.10
2014,07,14,06,48,18.10
2014,07,14,06,49,18.10
2014,07,14,06,50,18.20
2014,07,14,06,51,18.20
2014,07,14,06,52,18.20
2014,07,14,06,53,18.10
2014,07,14,06,54,18.10
2014,07,14,06,55,18.20
2014,07,14,06,56,18.20
2014,07,14,06,57,18.20
2014,07,14,06,58,18.20
2014,07,14,06,59,18.30
2014,07,14,07,00,18.30
2014,07,14,07,01,18.30
2014,07,14,07,02,18.30
2014,07,14,07,03,18.40
2014,07,14,07,04,18.40
2014,07,14,07,05,18.40
2014,07,14,07,06,18.40
2014,07,14,07,07,18.40
2014,07,14,07,08,18.40
2014,07,14,07,09,18.40
2014,07,14,07,10,18.40
2014,07,14,07,11,18.40
2014,07,14,07,12,18.50
2014,07,14,07,13,18.50
2014,07,14,07,14,18.50
2014,07,14,07,15,18.60
2014,07,14,07,16,18.60
2014,07,14,07,17,18.70
2014,07,14,07,18,18.70
2014,07,14,07,19,18.80
2014,07,14,07,20,18.80
2014,07,14,07,21,18.90
2014,07,14,07,22,18.90
2014,07,14,07,23,19.00
2014,07,14,07,24,19.10
2014,07,14,07,25,19.10
2014,07,14,07,26,19.10
2014,07,14,07,27,19.20
2014,07,14,07,28,19.20
2014,07,14,07,29,19.30
2014,07,14,07,30,19.40
2014,07,14,07,31,19.40
2014,07,14,07,32,19.50
2014,07,14,07,33,19.60
2014,07,14,07,34,19.80
2014,07,14,07,35,19.90
2014,07,14,07,36,20.10
2014,07,14,07,37,20.20
2014,07,14,07,38,20.30
2014,07,14,07,39,20.40
2014,07,14,07,40,20.60
2014,07,14,07,41,20.70
2014,07,14,07,42,20.80
2014,07,14,07,43,20.90
2014,07,14,07,44,21.00
2014,07,14,07,45,21.10
2014,07,14,07,46,21.20
2014,07,14,07,47,21.20
2014,07,14,07,48,21.30
2014,07,14,07,49,21.30
2014,07,14,07,50,21.40
2014,07,14,07,51,21.40
2014,07,14,07,52,21.50
2014,07,14,07,53,21.60
2014,07,14,07,54,21.70
2014,07,14,07,55,21.70
2014,07,14,07,56,21.80
2014,07,14,07,57,21.90
2014,07,14,07,58,21.90
2014,07,14,07,59,22.00
2014,07,14,08,00,22.00
2014,07,14,08,01,22.10
2014,07,14,08,02,22.10
2014,07,14,08,03,22.20
2014,07,14,08,04,22.20
2014,07,14,08,05,22.30
2014,07,14,08,06,22.30
2014,07,14,08,07,22.40
2014,07,14,08,08,22.40
2014,07,14,08,09,22.50
2014,07,14,08,10,22.60
2014,07,14,08,11,22.70
2014,07,14,08,12,22.80
2014,07,14,08,13,22.90
2014,07,14,08,14,22.90
2014,07,14,08,15,22.90
2014,07,14,08,16,22.90
2014,07,14,08,17,22.90
2014,07,14,08,18,22.90
2014,07,14,08,19,22.90
2014,07,14,08,20,22.90
2014,07,14,08,21,22.80
2014,07,14,08,22,22.80
2014,07,14,08,23,22.80
2014,07,14,08,24,22.80
2014,07,14,08,25,22.80
2014,07,14,08,26,22.70
2014,07,14,08,27,22.70
2014,07,14,08,28,22.70
2014,07,14,08,29,22.70
2014,07,14,08,30,22.80
2014,07,14,08,31,22.70
2014,07,14,08,32,22.70
2014,07,14,08,33,22.70
2014,07,14,08,34,22.80
2014,07,14,08,35,22.80
2014,07,14,08,36,22.80
2014,07,14,08,37,22.80
2014,07,14,08,38,22.80
2014,07,14,08,39,22.90
2014,07,14,08,40,22.90
2014,07,14,08,41,23.00
2014,07,14,08,42,23.10
2014,07,14,08,43,23.10
2014,07,14,08,44,23.10
2014,07,14,08,45,23.10
2014,07,14,08,46,23.20
2014,07,14,08,47,23.20
2014,07,14,08,48,23.20
2014,07,14,08,49,23.30
2014,07,14,08,50,23.30
2014,07,14,08,51,23.30
2014,07,14,08,52,23.30
2014,07,14,08,53,23.40
2014,07,14,08,54,23.40
2014,07,14,08,55,23.40
2014,07,14,08,56,23.40
2014,07,14,08,57,23.50
2014,07,14,08,58,23.50
2014,07,14,08,59,23.50
2014,07,14,09,00,23.50
2014,07,14,09,01,23.50
2014,07,14,09,02,23.50
2014,07,14,09,03,23.40
2014,07,14,09,04,23.30
2014,07,14,09,05,23.30
2014,07,14,09,06,23.20
2014,07,14,09,07,23.20
2014,07,14,09,08,23.20
2014,07,14,09,09,23.20
2014,07,14,09,10,23.20
2014,07,14,09,11,23.10
2014,07,14,09,12,23.10
2014,07,14,09,13,23.10
2014,07,14,09,14,23.20
2014,07,14,09,15,23.20
2014,07,14,09,16,23.20
2014,07,14,09,17,23.10
2014,07,14,09,18,23.10
2014,07,14,09,19,23.10
2014,07,14,09,20,23.20
2014,07,14,09,21,23.20
2014,07,14,09,22,23.20
2014,07,14,09,23,23.20
2014,07,14,09,24,23.20
2014,07,14,09,25,23.20
2014,07,14,09,26,23.10
2014,07,14,09,27,23.10
2014,07,14,09,28,23.00
2014,07,14,09,29,23.10
2014,07,14,09,30,23.10
2014,07,14,09,31,23.10
2014,07,14,09,32,23.10
2014,07,14,09,33,23.10
2014,07,14,09,34,23.00
2014,07,14,09,35,23.00
2014,07,14,09,36,22.90
2014,07,14,09,37,22.80
2014,07,14,09,38,22.80
2014,07,14,09,39,22.90
2014,07,14,09,40,22.90
2014,07,14,09,41,23.00
2014,07,14,09,42,23.00
2014,07,14,09,43,23.10
2014,07,14,09,44,23.10
2014,07,14,09,45,23.20
2014,07,14,09,46,23.30
2014,07,14,09,47,23.30
2014,07,14,09,48,23.40
2014,07,14,09,49,23.50
2014,07,14,09,50,23.50
2014,07,14,09,51,23.70
2014,07,14,09,52,23.80
2014,07,14,09,53,23.80
2014,07,14,09,54,23.90
2014,07,14,09,55,23.90
2014,07,14,09,56,23.90
2014,07,14,09,57,24.00
2014,07,14,09,58,24.00
2014,07,14,09,59,24.10
2014,07,14,10,00,24.10
2014,07,14,10,01,24.20
2014,07,14,10,02,24.30
2014,07,14,10,03,24.40
2014,07,14,10,04,24.50
2014,07,14,10,05,24.60
2014,07,14,10,06,24.60
2014,07,14,10,07,24.60
2014,07,14,10,08,24.50
2014,07,14,10,09,24.50
2014,07,14,10,10,24.40
2014,07,14,10,11,24.30
2014,07,14,10,12,24.20
2014,07,14,10,13,24.20
2014,07,14,10,14,24.20
2014,07,14,10,15,24.30
2014,07,14,10,16,24.30
2014,07,14,10,17,24.40
2014,07,14,10,18,24.50
2014,07,14,10,19,24.60
2014,07,14,10,20,24.70
2014,07,14,10,21,24.80
2014,07,14,10,22,24.80
2014,07,14,10,23,24.80
2014,07,14,10,24,24.70
2014,07,14,10,25,24.60
2014,07,14,10,26,24.50
2014,07,14,10,27,24.40
2014,07,14,10,28,24.30
2014,07,14,10,29,24.30
2014,07,14,10,30,24.30
2014,07,14,10,31,24.30
2014,07,14,10,32,24.30
2014,07,14,10,33,24.30
2014,07,14,10,34,24.30
2014,07,14,10,35,24.40
2014,07,14,10,36,24.40
2014,07,14,10,37,24.40
2014,07,14,10,38,24.40
2014,07,14,10,39,24.40
2014,07,14,10,40,24.40
2014,07,14,10,41,24.40
2014,07,14,10,42,24.40
2014,07,14,10,43,24.60
2014,07,14,10,44,24.70
2014,07,14,10,45,24.70
2014,07,14,10,46,24.70
2014,07,14,10,47,24.70
2014,07,14,10,48,24.60
2014,07,14,10,49,24.60
2014,07,14,10,50,24.60
2014,07,14,10,51,24.50
2014,07,14,10,52,24.50
2014,07,14,10,53,24.40
2014,07,14,10,54,24.40
2014,07,14,10,55,24.50
2014,07,14,10,56,24.60
2014,07,14,10,57,24.60
2014,07,14,10,58,24.70
2014,07,14,10,59,24.70
2014,07,14,11,00,24.70
2014,07,14,11,01,24.70
2014,07,14,11,02,24.80
2014,07,14,11,03,24.80
2014,07,14,11,04,24.80
2014,07,14,11,05,24.80
2014,07,14,11,06,24.90
2014,07,14,11,07,24.90
2014,07,14,11,08,24.90
2014,07,14,11,09,25.00
2014,07,14,11,10,25.10
2014,07,14,11,11,25.20
2014,07,14,11,12,25.40
2014,07,14,11,13,25.50
2014,07,14,11,14,25.70
2014,07,14,11,15,25.80
2014,07,14,11,16,26.00
2014,07,14,11,17,26.10
2014,07,14,11,18,26.30
2014,07,14,11,19,26.40
2014,07,14,11,20,26.40
2014,07,14,11,21,26.50
2014,07,14,11,22,26.60
2014,07,14,11,23,26.60
2014,07,14,11,24,26.70
2014,07,14,11,25,26.70
2014,07,14,11,26,26.70
2014,07,14,11,27,26.70
2014,07,14,11,28,26.70
2014,07,14,11,29,26.70
2014,07,14,11,30,26.50
2014,07,14,11,31,26.20
2014,07,14,11,32,26.00
2014,07,14,11,33,25.70
2014,07,14,11,34,25.60
2014,07,14,11,35,25.50
2014,07,14,11,36,25.40
2014,07,14,11,37,25.30
2014,07,14,11,38,25.20
2014,07,14,11,39,25.00
2014,07,14,11,40,24.70
2014,07,14,11,41,24.50
2014,07,14,11,42,24.30
2014,07,14,11,43,24.20
2014,07,14,11,44,24.00
2014,07,14,11,45,23.90
2014,07,14,11,46,23.80
2014,07,14,11,47,23.80
2014,07,14,11,48,23.80
2014,07,14,11,49,23.80
2014,07,14,11,50,23.80
2014,07,14,11,51,23.90
2014,07,14,11,52,23.90
2014,07,14,11,53,23.90
2014,07,14,11,54,23.80
2014,07,14,11,55,23.80
2014,07,14,11,56,23.70
2014,07,14,11,57,23.60
2014,07,14,11,58,23.50
2014,07,14,11,59,23.60
2014,07,14,12,00,23.70
2014,07,14,12,01,23.70
2014,07,14,12,02,23.80
2014,07,14,12,03,23.90
2014,07,14,12,04,23.90
2014,07,14,12,05,24.00
2014,07,14,12,06,24.00
2014,07,14,12,07,24.00
2014,07,14,12,08,24.00
2014,07,14,12,09,24.00
2014,07,14,12,10,24.10
2014,07,14,12,11,24.20
2014,07,14,12,12,24.20
2014,07,14,12,13,24.30
2014,07,14,12,14,24.30
2014,07,14,12,15,24.30
2014,07,14,12,16,24.30
2014,07,14,12,17,24.30
2014,07,14,12,18,24.30
2014,07,14,12,19,24.30
2014,07,14,12,20,24.30
2014,07,14,12,21,24.30
2014,07,14,12,22,24.30
2014,07,14,12,23,24.30
2014,07,14,12,24,24.30
2014,07,14,12,25,24.40
2014,07,14,12,26,24.40
2014,07,14,12,27,24.50
2014,07,14,12,28,24.60
2014,07,14,12,29,24.80
2014,07,14,12,30,24.80
2014,07,14,12,31,24.90
2014,07,14,12,32,25.00
2014,07,14,12,33,25.10
2014,07,14,12,34,25.20
2014,07,14,12,35,25.20
2014,07,14,12,36,25.20
2014,07,14,12,37,25.30
2014,07,14,12,38,25.40
2014,07,14,12,39,25.60
2014,07,14,12,40,25.80
2014,07,14,12,41,26.00
2014,07,14,12,42,26.10
2014,07,14,12,43,26.20
2014,07,14,12,44,26.40
2014,07,14,12,45,26.50
2014,07,14,12,46,26.50
2014,07,14,12,47,26.40
2014,07,14,12,48,26.30
2014,07,14,12,49,26.30
2014,07,14,12,50,26.10
2014,07,14,12,51,26.00
2014,07,14,12,52,25.90
2014,07,14,12,53,25.70
2014,07,14,12,54,25.70
2014,07,14,12,55,25.70
2014,07,14,12,56,25.80
2014,07,14,12,57,26.00
2014,07,14,12,58,26.10
2014,07,14,12,59,26.20
2014,07,14,13,00,26.20
2014,07,14,13,01,26.20
2014,07,14,13,02,26.10
2014,07,14,13,03,26.10
2014,07,14,13,04,26.10
2014,07,14,13,05,26.10
2014,07,14,13,06,26.20
2014,07,14,13,07,26.40
2014,07,14,13,08,26.50
2014,07,14,13,09,26.50
2014,07,14,13,10,26.60
2014,07,14,13,11,26.50
2014,07,14,13,12,26.50
2014,07,14,13,13,26.50
2014,07,14,13,14,26.50
2014,07,14,13,15,26.40
2014,07,14,13,16,26.40
2014,07,14,13,17,26.30
2014,07,14,13,18,26.40
2014,07,14,13,19,26.50
2014,07,14,13,20,26.60
2014,07,14,13,21,26.70
2014,07,14,13,22,26.80
2014,07,14,13,23,26.80
2014,07,14,13,24,26.80
2014,07,14,13,25,26.90
2014,07,14,13,26,26.90
2014,07,14,13,27,26.90
2014,07,14,13,28,27.00
2014,07,14,13,29,27.10
2014,07,14,13,30,27.20
2014,07,14,13,31,27.20
2014,07,14,13,32,27.30
2014,07,14,13,33,27.30
2014,07,14,13,34,27.30
2014,07,14,13,35,27.30
2014,07,14,13,36,27.30
2014,07,14,13,37,27.40
2014,07,14,13,38,27.40
2014,07,14,13,39,27.40
2014,07,14,13,40,27.50
2014,07,14,13,41,27.60
2014,07,14,13,42,27.60
2014,07,14,13,43,27.60
2014,07,14,13,44,27.50
2014,07,14,13,45,27.50
2014,07,14,13,46,27.50
2014,07,14,13,47,27.50
2014,07,14,13,48,27.50
2014,07,14,13,49,27.60
2014,07,14,13,50,27.80
2014,07,14,13,51,27.80
2014,07,14,13,52,27.90
2014,07,14,13,53,28.10
2014,07,14,13,54,28.20
2014,07,14,13,55,28.30
2014,07,14,13,56,28.30
2014,07,14,13,57,28.30
2014,07,14,13,58,28.30
2014,07,14,13,59,28.30
2014,07,14,14,00,28.30
2014,07,14,14,01,28.20
2014,07,14,14,02,28.20
2014,07,14,14,03,28.20
2014,07,14,14,04,28.20
2014,07,14,14,05,28.20
2014,07,14,14,06,28.20
2014,07,14,14,07,28.20
2014,07,14,14,08,28.20
2014,07,14,14,09,28.30
2014,07,14,14,10,28.30
2014,07,14,14,11,28.40
2014,07,14,14,12,28.30
2014,07,14,14,13,28.30
2014,07,14,14,14,28.30
2014,07,14,14,15,28.30
2014,07,14,14,16,28.30
2014,07,14,14,17,28.30
2014,07,14,14,18,28.30
2014,07,14,14,19,28.40
2014,07,14,14,20,28.50
2014,07,14,14,21,28.50
2014,07,14,14,22,28.40
2014,07,14,14,23,28.50
2014,07,14,14,24,28.50
2014,07,14,14,25,28.60
2014,07,14,14,26,28.70
2014,07,14,14,27,28.70
2014,07,14,14,28,28.70
2014,07,14,14,29,28.60
2014,07,14,14,30,28.60
2014,07,14,14,31,28.60
2014,07,14,14,32,28.60
2014,07,14,14,33,28.60
2014,07,14,14,34,28.70
2014,07,14,14,35,28.80
2014,07,14,14,36,28.90
2014,07,14,14,37,28.90
2014,07,14,14,38,29.00
2014,07,14,14,39,29.00
2014,07,14,14,40,29.00
2014,07,14,14,41,29.00
2014,07,14,14,42,28.90
2014,07,14,14,43,28.90
2014,07,14,14,44,28.90
2014,07,14,14,45,28.90
2014,07,14,14,46,28.90
2014,07,14,14,47,28.90
2014,07,14,14,48,28.90
2014,07,14,14,49,28.90
2014,07,14,14,50,28.90
2014,07,14,14,51,29.00
2014,07,14,14,52,29.10
2014,07,14,14,53,29.10
2014,07,14,14,54,29.10
2014,07,14,14,55,29.10
2014,07,14,14,56,29.10
2014,07,14,14,57,29.10
2014,07,14,14,58,29.10
2014,07,14,14,59,29.10
2014,07,14,15,00,29.10
2014,07,14,15,01,29.10
2014,07,14,15,02,29.20
2014,07,14,15,03,29.20
2014,07,14,15,04,29.20
2014,07,14,15,05,29.20
2014,07,14,15,06,29.30
2014,07,14,15,07,29.30
2014,07,14,15,08,29.20
2014,07,14,15,09,29.30
2014,07,14,15,10,29.30
2014,07,14,15,11,29.40
2014,07,14,15,12,29.50
2014,07,14,15,13,29.60
2014,07,14,15,14,29.70
2014,07,14,15,15,29.70
2014,07,14,15,16,29.70
2014,07,14,15,17,29.60
2014,07,14,15,18,29.60
2014,07,14,15,19,29.70
2014,07,14,15,20,29.70
2014,07,14,15,21,29.80
2014,07,14,15,22,29.80
2014,07,14,15,23,29.80
2014,07,14,15,24,29.80
2014,07,14,15,25,29.90
2014,07,14,15,26,30.00
2014,07,14,15,27,30.10
2014,07,14,15,28,30.20
2014,07,14,15,29,30.30
2014,07,14,15,30,30.30
2014,07,14,15,31,30.30
2014,07,14,15,32,30.30
2014,07,14,15,33,30.30
2014,07,14,15,34,30.30
2014,07,14,15,35,30.30
2014,07,14,15,36,30.30
2014,07,14,15,37,30.30
2014,07,14,15,38,30.40
2014,07,14,15,39,30.40
2014,07,14,15,40,30.50
2014,07,14,15,41,30.50
2014,07,14,15,42,30.60
2014,07,14,15,43,30.70
2014,07,14,15,44,30.80
2014,07,14,15,45,30.80
2014,07,14,15,46,30.80
2014,07,14,15,47,30.90
2014,07,14,15,48,31.00
2014,07,14,15,49,31.10
2014,07,14,15,50,31.20
2014,07,14,15,51,31.20
2014,07,14,15,52,31.10
2014,07,14,15,53,31.10
2014,07,14,15,54,31.00
2014,07,14,15,55,30.90
2014,07,14,15,56,30.80
2014,07,14,15,57,30.70
2014,07,14,15,58,30.70
2014,07,14,15,59,30.70
2014,07,14,16,00,30.60
2014,07,14,16,01,30.60
2014,07,14,16,02,30.50
2014,07,14,16,03,30.40
2014,07,14,16,04,30.40
2014,07,14,16,05,30.30
2014,07,14,16,06,30.30
2014,07,14,16,07,30.30
2014,07,14,16,08,30.40
2014,07,14,16,09,30.50
2014,07,14,16,10,30.60
2014,07,14,16,11,30.60
2014,07,14,16,12,30.50
2014,07,14,16,13,30.40
2014,07,14,16,14,30.40
2014,07,14,16,15,30.40
2014,07,14,16,16,30.40
2014,07,14,16,17,30.40
2014,07,14,16,18,30.40
2014,07,14,16,19,30.30
2014,07,14,16,20,30.30
2014,07,14,16,21,30.20
2014,07,14,16,22,30.20
2014,07,14,16,23,30.10
2014,07,14,16,24,30.00
2014,07,14,16,25,29.90
2014,07,14,16,26,29.90
2014,07,14,16,27,29.90
2014,07,14,16,28,29.90
2014,07,14,16,29,29.90
2014,07,14,16,30,29.90
2014,07,14,16,31,30.00
2014,07,14,16,32,29.90
2014,07,14,16,33,30.00
2014,07,14,16,34,30.00
2014,07,14,16,35,30.00
2014,07,14,16,36,30.10
2014,07,14,16,37,30.10
2014,07,14,16,38,30.20
2014,07,14,16,39,30.20
2014,07,14,16,40,30.10
2014,07,14,16,41,30.10
2014,07,14,16,42,30.10
2014,07,14,16,43,30.20
2014,07,14,16,44,30.20
2014,07,14,16,45,30.20
2014,07,14,16,46,30.20
2014,07,14,16,47,30.10
2014,07,14,16,48,30.20
2014,07,14,16,49,30.20
2014,07,14,16,50,30.20
2014,07,14,16,51,30.30
2014,07,14,16,52,30.30
2014,07,14,16,53,30.40
2014,07,14,16,54,30.40
2014,07,14,16,55,30.40
2014,07,14,16,56,30.40
2014,07,14,16,57,30.40
2014,07,14,16,58,30.40
2014,07,14,16,59,30.30
2014,07,14,17,00,30.20
2014,07,14,17,01,30.20
2014,07,14,17,02,30.10
2014,07,14,17,03,30.10
2014,07,14,17,04,30.20
2014,07,14,17,05,30.20
2014,07,14,17,06,30.30
2014,07,14,17,07,30.40
2014,07,14,17,08,30.50
2014,07,14,17,09,30.60
2014,07,14,17,10,30.70
2014,07,14,17,11,30.70
2014,07,14,17,12,30.80
2014,07,14,17,13,30.80
2014,07,14,17,14,30.80
2014,07,14,17,15,30.80
2014,07,14,17,16,30.90
2014,07,14,17,17,30.90
2014,07,14,17,18,31.00
2014,07,14,17,19,31.10
2014,07,14,17,20,31.20
2014,07,14,17,21,31.20
2014,07,14,17,22,31.10